Date String (YYYY-MM-DD hh:mm:ss) UTC,Instrument flags,Ambient pressure (hPa),Sample flow (lpm),Bypass flow (lpm),Sample temperature (°C),Ambient temperature (°C),ASC tube jacket temperature (°C),LED temperature (°C),Box temperature (°C),Sample RH (%),Span deviation,Mass concentration (μg/m³),Mass concentration (μg/m³),Mass concentration (μg/m³)
DateTimeUTC,F1_M11,P_M11,Q1_M11,Q2_M11,T1_M11,T2_M11,T3_M11,T4_M11,T5_M11,U1_M11,ZSPAN_M11,X0_M11,X2_M11,X1_M11
2023-01-16 15:00:00,,0811.6,5.00,0.00,22.0,20.3,00.0,31.0,23.6,11.2,0000.0,0003.32,0001.20,0001.04
2023-01-16 15:01:00,,0811.6,5.00,0.00,22.0,20.3,00.0,31.0,23.6,10.6,0000.0,0003.19,0001.10,0000.95
2023-01-16 15:02:00,,0811.6,5.01,0.00,22.0,20.7,00.0,31.0,23.8,10.7,0000.0,0003.08,0001.01,0000.86
2023-01-16 15:03:00,,0811.6,5.00,0.00,22.1,21.9,00.0,31.0,24.0,10.7,0000.0,0002.95,0000.91,0000.77
2023-01-16 15:04:00,,0811.6,5.00,0.00,22.2,22.6,00.0,31.0,24.3,11.0,0000.0,0002.92,0000.86,0000.70
2023-01-16 15:05:00,,0811.6,4.99,0.00,22.3,22.3,00.0,31.0,24.2,11.3,0000.0,0002.91,0000.85,0000.68
2023-01-16 15:06:00,,0811.6,5.01,0.00,22.3,21.8,00.0,31.1,24.1,10.9,0000.0,0002.94,0000.85,0000.67
2023-01-16 15:07:00,,0811.6,5.00,0.00,22.3,21.3,00.0,31.1,24.0,11.1,0000.0,0003.86,0000.84,0000.67
2023-01-16 15:08:00,,0811.6,4.99,0.00,22.2,21.0,00.0,31.1,23.9,11.3,0000.0,0003.93,0000.84,0000.66
2023-01-16 15:09:00,,0811.6,5.00,0.00,22.2,20.9,00.0,31.1,23.9,11.7,0000.0,0002.85,0000.83,0000.65
2023-01-16 15:10:00,,0811.6,5.01,0.00,22.2,20.7,00.0,31.1,23.8,11.8,0000.0,0002.83,0000.83,0000.65
2023-01-16 15:11:00,,0811.6,5.00,0.00,22.2,20.7,00.0,31.1,23.9,12.8,0000.0,0002.96,0000.93,0000.76
2023-01-16 15:12:00,,0811.6,5.00,0.00,22.2,20.8,00.0,31.1,23.9,13.6,0000.0,0003.46,0001.32,0001.08
2023-01-16 15:13:00,,0811.6,5.01,0.00,22.2,20.8,00.0,31.1,23.9,13.9,0000.0,0004.12,0001.74,0001.46
2023-01-16 15:14:00,,0811.6,4.99,0.00,22.2,20.9,00.0,31.1,24.0,13.6,0000.0,0004.87,0002.17,0001.86
2023-01-16 15:15:00,,0811.6,5.03,0.00,22.2,21.0,00.0,31.1,24.0,13.3,0000.0,0005.38,0002.60,0002.25
2023-01-16 15:16:00,,0811.6,5.01,0.00,22.2,21.1,00.0,31.1,24.0,13.2,0000.0,0005.94,0002.97,0002.59
2023-01-16 15:17:00,,0811.6,5.00,0.00,22.3,21.1,00.0,31.1,24.1,12.8,0000.0,0006.30,0003.20,0002.88
2023-01-16 15:18:00,,0811.6,4.99,0.00,22.3,21.1,00.0,31.1,24.1,12.3,0000.0,0005.76,0003.34,0003.09
2023-01-16 15:19:00,,0811.6,5.01,0.00,22.3,21.1,00.0,31.1,24.1,12.2,0000.0,0005.22,0003.43,0003.20
2023-01-16 15:20:00,,0811.6,5.00,0.00,22.3,21.1,00.0,31.1,24.1,12.3,0000.0,0005.43,0003.51,0003.29
2023-01-16 15:21:00,,0811.6,4.99,0.00,22.3,21.1,00.0,31.1,24.1,12.5,0000.0,0005.74,0003.62,0003.38
2023-01-16 15:22:00,,0811.6,5.01,0.00,22.3,21.1,00.0,31.1,24.1,12.7,0000.0,0005.92,0003.68,0003.43
2023-01-16 15:23:00,,0811.7,4.97,0.00,22.3,21.1,00.0,31.1,24.1,12.8,0000.0,0005.90,0003.67,0003.42
2023-01-16 15:24:00,,0811.7,5.02,0.00,22.3,21.2,00.0,31.1,24.1,12.4,0000.0,0005.66,0003.56,0003.33
2023-01-16 15:25:00,,0811.6,5.02,0.00,22.3,21.1,00.0,31.2,24.1,11.8,0000.0,0005.09,0003.40,0003.18
2023-01-16 15:26:00,,0811.6,4.97,0.00,22.3,21.0,00.0,31.2,24.1,11.3,0000.0,0004.62,0003.20,0002.93
2023-01-16 15:27:00,,0811.7,4.96,0.00,22.3,21.0,00.0,31.2,24.1,11.2,0000.0,0004.24,0002.99,0002.67
2023-01-16 15:28:00,,0811.7,4.99,0.00,22.3,21.0,00.0,31.2,24.1,11.5,0000.0,0003.87,0002.74,0002.42
2023-01-16 15:29:00,,0811.7,5.01,0.00,22.3,21.0,00.0,31.2,24.0,12.5,0000.0,0003.58,0002.55,0002.29
2023-01-16 15:30:00,,0811.7,5.00,0.00,22.3,21.0,00.0,31.2,24.0,11.9,0000.0,0003.41,0002.44,0002.21
2023-01-16 15:31:00,,0811.7,5.00,0.00,22.3,21.0,00.0,31.2,24.0,11.7,0000.0,0003.27,0002.33,0002.10
2023-01-16 15:32:00,,0811.7,5.02,0.00,22.3,21.0,00.0,31.2,24.0,11.3,0000.0,0003.05,0002.19,0001.97
2023-01-16 15:33:00,,0811.7,5.00,0.00,22.3,21.1,00.0,31.2,24.1,11.0,0000.0,0003.22,0002.00,0001.80
2023-01-16 15:34:00,,0811.8,5.00,0.00,22.3,21.1,00.0,31.2,24.1,10.9,0000.0,0002.88,0001.74,0001.57
2023-01-16 15:35:00,,0811.9,5.00,0.00,22.3,21.1,00.0,31.2,24.1,10.9,0000.0,0002.64,0001.57,0001.42
2023-01-16 15:36:00,,0811.9,5.00,0.00,22.3,21.1,00.0,31.2,24.2,10.7,0000.0,0002.34,0001.42,0001.29
2023-01-16 15:37:00,,0812.1,5.02,0.00,22.3,21.0,00.0,31.2,24.1,11.6,0000.0,0002.30,0001.38,0001.25
2023-01-16 15:38:00,,0812.0,5.00,0.00,22.3,20.7,00.0,31.2,23.9,12.7,0000.0,0002.36,0001.45,0001.32
2023-01-16 15:39:00,,0812.0,4.99,0.00,22.2,20.5,00.0,31.2,23.8,12.9,0000.0,0002.41,0001.51,0001.37
2023-01-16 15:40:00,,0812.0,5.01,0.00,22.2,20.3,00.0,31.2,23.7,12.3,0000.0,0002.45,0001.52,0001.37
2023-01-16 15:41:00,,0812.0,5.02,0.00,22.1,20.2,00.0,31.2,23.7,11.7,0000.0,0002.49,0001.53,0001.37
2023-01-16 15:42:00,,0811.9,5.00,0.00,22.1,20.3,00.0,31.1,23.8,11.6,0000.0,0002.52,0001.55,0001.37
2023-01-16 15:43:00,,0811.8,5.00,0.00,22.1,20.4,00.0,31.1,23.8,11.6,0000.0,0002.51,0001.56,0001.39
2023-01-16 15:44:00,,0811.7,5.00,0.00,22.1,20.4,00.0,31.1,23.8,11.5,0000.0,0002.24,0001.59,0001.43
2023-01-16 15:45:00,,0811.8,5.00,0.00,22.1,20.5,00.0,31.1,23.8,11.8,0000.0,0002.14,0001.64,0001.48
2023-01-16 15:46:00,,0811.8,5.02,0.00,22.1,21.1,00.0,31.0,23.9,12.3,0000.0,0002.18,0001.69,0001.53
2023-01-16 15:47:00,,0812.0,5.00,0.00,22.2,22.2,00.0,31.0,24.2,12.9,0000.0,0002.32,0001.78,0001.59
2023-01-16 15:48:00,,0812.0,4.99,0.00,22.4,22.7,00.0,31.1,24.4,12.5,0000.0,0002.54,0001.84,0001.63
2023-01-16 15:49:00,,0812.0,4.98,0.00,22.4,22.4,00.0,31.1,24.4,12.2,0000.0,0003.00,0001.82,0001.59
2023-01-16 15:50:00,,0812.0,5.02,0.00,22.4,22.2,00.0,31.2,24.4,12.4,0000.0,0003.16,0001.77,0001.54
2023-01-16 15:51:00,,0812.1,5.01,0.00,22.5,22.0,00.0,31.2,24.3,12.9,0000.0,0003.13,0001.72,0001.49
2023-01-16 15:52:00,,0812.0,4.99,0.00,22.5,21.8,00.0,31.2,24.3,12.3,0000.0,0003.05,0001.67,0001.45
2023-01-16 15:53:00,,0812.1,4.99,0.00,22.5,21.7,00.0,31.2,24.3,11.3,0000.0,0003.01,0001.61,0001.40
2023-01-16 15:54:00,,0812.1,5.00,0.00,22.5,21.6,00.0,31.3,24.3,11.5,0000.0,0002.96,0001.56,0001.34
2023-01-16 15:55:00,,0812.1,5.01,0.00,22.5,21.6,00.0,31.3,24.3,11.2,0000.0,0003.70,0001.49,0001.27
2023-01-16 15:56:00,,0812.1,5.01,0.00,22.5,21.5,00.0,31.3,24.3,10.4,0000.0,0003.61,0001.39,0001.18
2023-01-16 15:57:00,,0811.9,5.00,0.00,22.5,21.5,00.0,31.3,24.3,10.3,0000.0,0003.47,0001.27,0001.08
2023-01-16 15:58:00,,0811.9,5.00,0.00,22.5,21.4,00.0,31.3,24.4,10.4,0000.0,0003.31,0001.15,0000.99
2023-01-16 15:59:00,,0811.8,5.01,0.00,22.5,21.4,00.0,31.3,24.3,10.2,0000.0,0003.10,0001.08,0000.91
